Regional Weather Roundup
Issued by NWS

Home | Current Version | Previous Version | Text Only | Print | Product List | Glossary Off
Versions: 1 2 3 4 5 6 7 8 9 10 11 12 13 14 15 16 17 18 19 20 21 22 23 24 25 26 27 28 29 30 31 32 33 34 35 36 37 38 39 40 41 42 43 44 45 46 47 48 49 50

000
ASUS45 KPSR 240610
RWRAZ

ARIZONA HOURLY REGIONAL WEATHER ROUNDUP
NATIONAL WEATHER SERVICE PHOENIX AZ
1100 PM MST THU MAR 23 2017

NOTE: FAIR INDICATES FEW OR NO CLOUDS BELOW 12,000 FEET WITH NO
SIGNIFICANT WEATHER AND/OR OBSTRUCTIONS TO VISIBILITY.

AZZ001>003-036-240700-
NORTHWEST ARIZONA

CITY           SKY/WX    TMP DP  RH WIND       PRES   REMARKS
BULLHEAD CITY  CLEAR     63  34  34 SE5       30.04R
KINGMAN        CLEAR     44  28  53 E3        30.11R
6HR MIN TEMP:  44; 6HR MAX TEMP:  60;

$$

AZZ004>008-015-016-018-240700-
NORTH CENTRAL ARIZONA

CITY           SKY/WX    TMP DP  RH WIND       PRES   REMARKS
GRAND CANYON   PTCLDY    32  30  92 SW6       30.14R WCI  26
6HR MIN TEMP:  30; 6HR MAX TEMP:  40; 6HR PCP:  0.03;

WILLIAMS       CLEAR     32  28  86 NW6       30.15R WCI  26
PRESCOTT       CLEAR     42  31  64 W5        30.14R
6HR MIN TEMP:  41; 6HR MAX TEMP:  47;

FLAGSTAFF      CLEAR     33  27  78 NW10G24   30.09R WCI  25
6HR MIN TEMP:  33; 6HR MAX TEMP:  34; 6HR PCP:  0.01;

PAYSON         CLEAR     37  36  93 E5        30.15R WCI  34
PAGE           CLEAR     50  50 100 W14G22    29.99R
6HR MIN TEMP:  49; 6HR MAX TEMP:  54;

$$

AZZ009>014-017-240700-
NORTHEAST ARIZONA

CITY           SKY/WX    TMP DP  RH WIND       PRES   REMARKS
WINSLOW        PTCLDY    44  32  62 W16       30.04R
6HR MIN TEMP:  44; 6HR MAX TEMP:  50;

SAINT JOHNS    CLOUDY    40  32  73 W23G30    30.01R WCI  30
6HR MIN TEMP:  37; 6HR MAX TEMP:  46; 6HR PCP:  0.02;

WINDOW ROCK    FLURRIES  37  31  78 W17G25    29.95R WCI  27
6HR MIN TEMP:  34; 6HR MAX TEMP:  38; 6HR PCP:  0.05;

SHOW LOW       MOCLDY    32  30  93 SW20      30.09R WCI  20
$$

AZZ023-240700-
GREATER PHOENIX AREA

CITY           SKY/WX    TMP DP  RH WIND       PRES   REMARKS
PHOENIX        CLEAR     61  36  39 SW3       30.06R
6HR MIN TEMP:  61; 6HR MAX TEMP:  70;

BUCKEYE        CLEAR     55  37  50 CALM      30.09R
LUKE AFB       CLEAR     61  36  38 SW10      30.06R
6HR MIN TEMP:  58; 6HR MAX TEMP:  70; 6HR PCP: TRACE;

DEER VALLEY    CLEAR     51  42  71 CALM      30.07R
6HR MIN TEMP:  51; 6HR MAX TEMP:  66;

SCOTTSDALE     CLEAR     57  40  52 CALM      30.08R
6HR MIN TEMP:  56; 6HR MAX TEMP:  65;

MESA-GATEWAY   PTCLDY    57  36  44 SW8       30.09R
$$

AZZ027-028-240700-
SOUTHWEST MARICOPA COUNTY AND PINAL COUNTY

CITY           SKY/WX    TMP DP  RH WIND       PRES   REMARKS
CASA GRANDE    NOT AVBL
GILA BEND      FAIR      60  30  31 SW9       30.09R
6HR MIN TEMP:  60; 6HR MAX TEMP:  71;

$$

AZZ503-504-507>509-240700-
SOUTHEAST ARIZONA

CITY           SKY/WX    TMP DP  RH WIND       PRES   REMARKS
TUCSON         CLEAR     54  20  26 CALM      30.15R
6HR MIN TEMP:  54; 6HR MAX TEMP:  66;

DAVIS-MONTHAN  CLEAR     51  20  28 SW7       30.14R
6HR MIN TEMP:  51; 6HR MAX TEMP:  64;

NOGALES        CLEAR     42  19  39 E5        30.16R
6HR MIN TEMP:  42; 6HR MAX TEMP:  62;

SIERRA VISTA   CLEAR     43  20  39 W13       30.16F
6HR MIN TEMP:  41; 6HR MAX TEMP:  57;

DOUGLAS        CLEAR     47  22  37 NE8       30.16R
6HR MIN TEMP:  43; 6HR MAX TEMP:  62;

SAFFORD        CLOUDY    48  37  65 SW6       30.08S
6HR MIN TEMP:  48; 6HR MAX TEMP:  60;

$$

AZZ020-021-025-026-031-240700-
SOUTHWEST ARIZONA

CITY           SKY/WX    TMP DP  RH WIND       PRES   REMARKS
YUMA           CLEAR     63  40  42 W8        30.11R
$$

CAZ031-033-041-043-047-048-061-240700-
SOUTHERN CALIFORNIA

CITY           SKY/WX    TMP DP  RH WIND       PRES   REMARKS
DOWNTOWN L.A.  CLEAR     58  51  78 CALM      30.21R
6HR MIN TEMP:  58; 6HR MAX TEMP:  67;

L.A. AIRPORT   CLEAR     57  52  83 S5        30.21R
6HR MIN TEMP:  57; 6HR MAX TEMP:  63;

SAN DIEGO      PTCLDY    59  46  62 CALM      30.25S
6HR MIN TEMP:  58; 6HR MAX TEMP:  64;

BURBANK        CLEAR     55  49  80 SE6       30.20R
6HR MIN TEMP:  55; 6HR MAX TEMP:  66;

ONTARIO        CLEAR     51  42  71 W8        30.22R
6HR MIN TEMP:  51; 6HR MAX TEMP:  65;

RIVERSIDE      CLEAR     53  41  63 CALM      30.22R
6HR MIN TEMP:  53; 6HR MAX TEMP:  67;

PALM SPRINGS   CLEAR     65  39  38 NW15      30.12R
6HR MIN TEMP:  64; 6HR MAX TEMP:  77;

EL CENTRO NAS  CLEAR     61  38  42 W10       30.12R
6HR MIN TEMP:  61; 6HR MAX TEMP:  76; 6HR PCP: TRACE;

IMPERIAL       CLEAR     58  43  57 W9        30.10R
6HR MIN TEMP:  58; 6HR MAX TEMP:  76;

BLYTHE         CLEAR     65  41  41 W12       30.07R
6HR MIN TEMP:  65; 6HR MAX TEMP:  78;

NEEDLES        CLEAR     69  24  18 W17       30.04R
6HR MIN TEMP:  67; 6HR MAX TEMP:  76;

$$

NVZ020-UTZ003-240700-
SOUTHERN NEVADA-UTAH

CITY           SKY/WX    TMP DP  RH WIND       PRES   REMARKS
LAS VEGAS      PTCLDY    60  36  40 N3        30.08R
6HR MIN TEMP:  60; 6HR MAX TEMP:  72;

SALT LAKE CITY CLEAR     36  34  92 CALM      30.09R
6HR MIN TEMP:  36; 6HR MAX TEMP:  42;

$$

NMZ009-TXZ055-240700-
NEW MEXICO-WEST TEXAS

CITY           SKY/WX    TMP DP  RH WIND       PRES   REMARKS
ALBUQUERQUE    MOCLDY    43  30  60 SW20G29   29.89S
6HR MIN TEMP:  42; 6HR MAX TEMP:  49; 6HR PCP: TRACE;

EL PASO        CLEAR     54  20  26 W20G33    30.02R
6HR MIN TEMP:  54; 6HR MAX TEMP:  65;

$$


........................KEY........................
SKY/WX - SKY CONDITION/WEATHER
TMP    - TEMPERATURE IN FAHRENHEIT
DP     - DEW POINT IN FAHRENHEIT
RH     - RELATIVE HUMIDITY IN PERCENT
WIND   - DIRECTION AND SPEED IN MILES PER HOUR (MPH)
VRB    - VARIABLE WIND DIRECTION
PRES   - MEAN SEA LEVEL PRESSURE IN INCHES OF MERCURY
         F - FALLING PRESSURE   R - RISING PRESSURE
         S - STEADY PRESSURE
VSB    - VISIBILITY IN MILES
HX     - HEAT INDEX IN FAHRENHEIT
WCI    - WIND CHILL INDEX IN FAHRENHEIT
TC     - TEMPERATURE IN CELSIUS WHICH IS ALSO KNOWN AS
         TEMPERATURE IN CENTIGRADE
AFB    - AIR FORCE BASE
         LUKE AFB IS LUKE AIR FORCE BASE
         DAVIS-MONTHAN IS DAVIS-MONTHAN AIR FORCE BASE
NAS    - NAVAL AIR STATION
         EL CENTRO NAS IS EL CENTRO NAVAL AIR STATION
N/A    - NOT AVAILABLE




USA.gov is the U.S. government's official web portal to all federal, state and local government web resources and services.